Orbital Elements at Epoch 2459000.5 (2020-May-31.0) TDB
Reference: JPL 16 (heliocentric ecliptic J2000)
Element | Value | Uncertainty (1-sigma) | Units |
e | .1144352980868668 | 3.9358e-08 | |
a | 3.102484726264636 | 1.8176e-08 | au |
q | 2.747450961804591 | 1.2013e-07 | au |
i | 2.721616897573394 | 4.8609e-06 | deg |
node | 71.76583396581674 | 8.8656e-05 | deg |
peri | 33.52179545748732 | 9.1619e-05 | deg |
M | 139.7995715644618 | 2.3145e-05 | deg |
tp | 2458225.384815618187 (2018-Apr-16.88481562) | 0.00012556 | TDB |
period | 1996.010883687053 5.46 | 1.7541e-05 4.802e-08 | d yr |
n | .1803597379865004 | 1.585e-09 | deg/d |
Q | 3.457518490724682 | 2.0256e-08 | au |
|
| | Orbit Determination Parameters
Additional Information
|